^^
Datos históricos de la estación: Murcia-Puente Tocinos
 
Diario Informe para Mayo 20, 2018 Unidades:  Métrico    Inglés   Ambas
Diario Semanal Mensual Anual Configurable
  Actual: Máximo: Mínimo: Media:
Temperatura: 21.4 °C 21.4 °C 15.2 °C 16.8 °C
Punto de rocio: 11.1 °C 13.6 °C 11.1 °C 12.7 °C
Humedad: 52% 83% 52% 77%
Velocidad viento: 4.7km/h 6.9km/h 0.0km/h 3.9km/h
Racha viento: 5.6km/h 11.9km/h - -
VientoEast - - South
Presión: 1013.4 hPa 1014.8 hPa 1013.1 hPa -
Precipitación: 0.0 mm      
Historical Graphs
 
 
Tabla de datos para Mayo 20, 2018
Hora Temperatura Punto de rocio Presión Viento Velocidad viento Racha viento Humedad Intensidad lluvia(por hora) Nubes
00:04 17.4 °C 13.3 °C 1014.4 hPa ENE 5.8 km/h 7.4 km/h 77% 0.0 mm CLR
00:09 17.4 °C 13.3 °C 1014.4 hPa ENE 6.4 km/h 6.4 km/h 77% 0.0 mm CLR
00:14 17.3 °C 13.4 °C 1014.4 hPa East 6.4 km/h 6.4 km/h 78% 0.0 mm CLR
00:15 17.3 °C 13.4 °C 1014.4 hPa East 3.2 km/h 5.6 km/h 78% 0.0 mm CLR
00:20 17.3 °C 13.4 °C 1014.8 hPa East 3.2 km/h 3.7 km/h 78% 0.0 mm CLR
00:25 17.3 °C 13.4 °C 1014.8 hPa East 2.3 km/h 3.7 km/h 78% 0.0 mm CLR
00:30 17.3 °C 13.4 °C 1014.8 hPa ENE 2.3 km/h 7.4 km/h 78% 0.0 mm CLR
00:35 17.3 °C 13.4 °C 1014.8 hPa ENE 3.2 km/h 5.6 km/h 78% 0.0 mm CLR
00:40 17.3 °C 13.4 °C 1014.8 hPa NE 3.2 km/h 3.7 km/h 78% 0.0 mm CLR
00:45 17.2 °C 13.3 °C 1014.8 hPa North 3.2 km/h 7.4 km/h 78% 0.0 mm CLR
00:50 17.2 °C 13.3 °C 1014.4 hPa NNE 3.2 km/h 3.7 km/h 78% 0.0 mm CLR
00:55 17.1 °C 13.4 °C 1014.4 hPa NNE 2.9 km/h 2.9 km/h 79% 0.0 mm CLR
01:00 17.1 °C 13.4 °C 1014.4 hPa NNE 2.9 km/h 3.7 km/h 79% 0.0 mm CLR
01:05 17.1 °C 13.4 °C 1014.8 hPa NNE 2.3 km/h 3.7 km/h 79% 0.0 mm CLR
01:10 17.0 °C 13.5 °C 1014.8 hPa NNE 2.3 km/h 3.9 km/h 80% 0.0 mm CLR
01:15 17.0 °C 13.5 °C 1014.8 hPa NNE 2.3 km/h 2.3 km/h 80% 0.0 mm CLR
01:20 16.9 °C 13.4 °C 1014.4 hPa NNE 2.3 km/h 3.7 km/h 80% 0.0 mm CLR
01:25 16.9 °C 13.4 °C 1014.4 hPa NNE 2.3 km/h   80% 0.0 mm CLR
01:30 17.0 °C 13.5 °C 1014.4 hPa NNE 2.3 km/h 3.7 km/h 80% 0.0 mm CLR
01:35 17.0 °C 13.5 °C 1014.4 hPa NNE 2.3 km/h 4.7 km/h 80% 0.0 mm CLR
01:40 16.9 °C 13.4 °C 1014.4 hPa WNW 2.3 km/h 9.3 km/h 80% 0.0 mm CLR
01:45 16.9 °C 13.4 °C 1014.4 hPa NW 4.7 km/h 7.4 km/h 80% 0.0 mm CLR
01:50 16.8 °C 13.5 °C 1014.4 hPa NW 4.7 km/h 5.6 km/h 81% 0.0 mm CLR
01:55 16.8 °C 13.5 °C 1014.4 hPa NW 2.9 km/h 3.9 km/h 81% 0.0 mm CLR
02:00 16.7 °C 13.4 °C 1014.4 hPa NW 2.9 km/h 5.6 km/h 81% 0.0 mm CLR
02:05 16.7 °C 13.4 °C 1014.4 hPa Calm     81% 0.0 mm CLR
02:10 16.7 °C 13.6 °C 1014.4 hPa Calm     82% 0.0 mm CLR
02:15 16.7 °C 13.6 °C 1014.4 hPa Calm   5.6 km/h 82% 0.0 mm CLR
02:20 16.7 °C 13.6 °C 1014.1 hPa Calm   3.7 km/h 82% 0.0 mm CLR
02:25 16.7 °C 13.6 °C 1014.1 hPa NW 2.3 km/h 2.3 km/h 82% 0.0 mm CLR
02:30 16.7 °C 13.6 °C 1014.1 hPa NW 2.3 km/h 3.7 km/h 82% 0.0 mm CLR
02:35 16.7 °C 13.6 °C 1014.1 hPa NNW 2.9 km/h 5.6 km/h 82% 0.0 mm CLR
02:40 16.7 °C 13.6 °C 1014.1 hPa NNW 2.9 km/h 3.7 km/h 82% 0.0 mm CLR
02:45 16.7 °C 13.2 °C 1014.1 hPa ESE 2.9 km/h 7.4 km/h 80% 0.0 mm CLR
02:50 16.6 °C 12.9 °C 1014.1 hPa ESE 2.9 km/h 7.4 km/h 79% 0.0 mm CLR
02:55 16.4 °C 12.9 °C 1014.1 hPa ESE 4.7 km/h 5.6 km/h 80% 0.0 mm CLR
03:00 16.4 °C 12.9 °C 1014.1 hPa East 4.7 km/h 5.6 km/h 80% 0.0 mm CLR
03:05 16.4 °C 12.9 °C 1013.8 hPa East 3.2 km/h 5.8 km/h 80% 0.0 mm CLR
03:10 16.3 °C 12.8 °C 1013.8 hPa ENE 3.2 km/h 7.4 km/h 80% 0.0 mm CLR
03:15 16.1 °C 12.8 °C 1013.8 hPa East 3.9 km/h 5.6 km/h 81% 0.0 mm CLR
03:20 16.1 °C 12.8 °C 1013.8 hPa East 3.9 km/h 3.9 km/h 81% 0.0 mm FEW
03:25 16.1 °C 12.8 °C 1013.8 hPa East 2.3 km/h 3.7 km/h 81% 0.0 mm CLR
03:30 16.1 °C 12.8 °C 1013.8 hPa SE 2.3 km/h 7.4 km/h 81% 0.0 mm FEW
03:35 16.1 °C 12.8 °C 1013.4 hPa SE 3.2 km/h 3.7 km/h 81% 0.0 mm CLR
03:40 16.2 °C 12.9 °C 1013.4 hPa SE 3.2 km/h 4.7 km/h 81% 0.0 mm FEW
03:45 16.2 °C 12.9 °C 1013.4 hPa SE 2.3 km/h 3.7 km/h 81% 0.0 mm CLR
03:50 16.3 °C 13.1 °C 1013.4 hPa SE 2.3 km/h 5.6 km/h 81% 0.0 mm CLR
03:55 16.3 °C 13.1 °C 1013.4 hPa SSE 3.9 km/h 6.4 km/h 81% 0.0 mm CLR
04:00 16.3 °C 12.8 °C 1013.4 hPa SSE 3.9 km/h 7.6 km/h 80% 0.0 mm CLR
04:05 16.2 °C 12.7 °C 1013.4 hPa South 5.0 km/h 7.4 km/h 80% 0.0 mm CLR
04:10 16.2 °C 12.9 °C 1013.4 hPa SSW 5.0 km/h 7.6 km/h 81% 0.0 mm CLR
04:15 16.2 °C 12.9 °C 1013.4 hPa SW 5.0 km/h 7.6 km/h 81% 0.0 mm CLR
04:20 16.2 °C 12.9 °C 1013.4 hPa SSW 5.0 km/h 7.4 km/h 81% 0.0 mm CLR
04:25 16.3 °C 13.1 °C 1013.4 hPa SW 3.9 km/h 7.4 km/h 81% 0.0 mm CLR
04:30 16.3 °C 13.1 °C 1013.4 hPa SW 3.9 km/h 5.8 km/h 81% 0.0 mm CLR
04:35 16.3 °C 13.1 °C 1013.1 hPa SSW 5.0 km/h 10.3 km/h 81% 0.0 mm CLR
04:40 16.2 °C 12.9 °C 1013.1 hPa SSW 5.0 km/h 7.6 km/h 81% 0.0 mm CLR
04:45 16.1 °C 12.8 °C 1013.1 hPa South 6.4 km/h 7.4 km/h 81% 0.0 mm CLR
04:50 16.0 °C 12.7 °C 1013.1 hPa SW 6.4 km/h 9.3 km/h 81% 0.0 mm CLR
04:55 15.9 °C 12.8 °C 1013.1 hPa SW 5.8 km/h 11.1 km/h 82% 0.0 mm CLR
05:00 15.9 °C 12.8 °C 1013.1 hPa SW 5.8 km/h 11.1 km/h 82% 0.0 mm CLR
05:05 15.9 °C 13.0 °C 1013.1 hPa SW 6.4 km/h 9.3 km/h 83% 0.0 mm CLR
05:10 15.8 °C 12.7 °C 1013.1 hPa SSW 6.4 km/h 11.9 km/h 82% 0.0 mm CLR
05:15 15.7 °C 12.6 °C 1013.1 hPa SSW 6.9 km/h 9.3 km/h 82% 0.0 mm CLR
05:20 15.7 °C 12.6 °C 1013.1 hPa SSW 6.9 km/h 11.1 km/h 82% 0.0 mm CLR
05:25 15.6 °C 12.7 °C 1013.1 hPa SSW 6.4 km/h 9.5 km/h 83% 0.0 mm CLR
05:30 15.6 °C 12.7 °C 1013.1 hPa South 6.4 km/h 9.3 km/h 83% 0.0 mm CLR
05:36 15.7 °C 12.8 °C 1013.1 hPa South 6.4 km/h 6.4 km/h 83% 0.0 mm CLR
05:41 15.7 °C 12.8 °C 1013.1 hPa SSW 6.4 km/h 9.3 km/h 83% 0.0 mm CLR
05:46 15.7 °C 12.8 °C 1013.1 hPa SW 5.0 km/h 7.4 km/h 83% 0.0 mm CLR
05:51 15.7 °C 12.8 °C 1013.1 hPa South 5.0 km/h 5.6 km/h 83% 0.0 mm CLR
05:56 15.7 °C 12.6 °C 1013.1 hPa WSW 3.2 km/h 3.7 km/h 82% 0.0 mm CLR
06:01 15.8 °C 12.7 °C 1013.1 hPa WSW 3.2 km/h 5.6 km/h 82% 0.0 mm CLR
06:06 15.8 °C 12.7 °C 1013.1 hPa South 3.2 km/h 5.6 km/h 82% 0.0 mm CLR
06:11 15.8 °C 12.7 °C 1013.1 hPa South 3.2 km/h 3.7 km/h 82% 0.0 mm CLR
06:16 15.8 °C 12.7 °C 1013.1 hPa South 2.3 km/h   82% 0.0 mm CLR
06:21 15.7 °C 12.6 °C 1013.1 hPa South 2.3 km/h   82% 0.0 mm CLR
06:26 15.7 °C 12.6 °C 1013.1 hPa Calm   3.7 km/h 82% 0.0 mm CLR
06:31 15.6 °C 12.6 °C 1013.1 hPa Calm   5.8 km/h 82% 0.0 mm CLR
06:36 15.5 °C 12.4 °C 1013.1 hPa WNW 3.2 km/h 3.7 km/h 82% 0.0 mm CLR
06:41 15.4 °C 12.5 °C 1013.1 hPa WNW 3.2 km/h 3.7 km/h 83% 0.0 mm CLR
06:46 15.4 °C 12.5 °C 1013.1 hPa West 2.9 km/h 5.6 km/h 83% 0.0 mm CLR
06:51 15.4 °C 12.5 °C 1013.1 hPa West 2.9 km/h 5.0 km/h 83% 0.0 mm CLR
06:56 15.3 °C 12.4 °C 1013.1 hPa WSW 3.9 km/h 7.4 km/h 83% 0.0 mm CLR
07:01 15.3 °C 12.4 °C 1013.1 hPa West 3.9 km/h 7.4 km/h 83% 0.0 mm CLR
07:06 15.3 °C 12.4 °C 1013.1 hPa West 4.7 km/h 7.4 km/h 83% 0.0 mm CLR
07:11 15.3 °C 12.4 °C 1013.1 hPa West 4.7 km/h 5.6 km/h 83% 0.0 mm CLR
07:16 15.3 °C 12.4 °C 1013.1 hPa West 3.9 km/h 3.9 km/h 83% 0.0 mm CLR
07:21 15.3 °C 12.4 °C 1013.1 hPa SSE 3.9 km/h 3.9 km/h 83% 0.0 mm CLR
07:26 15.3 °C 12.4 °C 1013.1 hPa SSE 2.9 km/h 5.6 km/h 83% 0.0 mm CLR
07:31 15.2 °C 12.3 °C 1013.1 hPa SSE 2.9 km/h 3.7 km/h 83% 0.0 mm CLR
07:36 15.2 °C 12.3 °C 1013.4 hPa SSE 2.3 km/h   83% 0.0 mm CLR
07:41 15.2 °C 12.3 °C 1013.4 hPa SSE 2.3 km/h   83% 0.0 mm CLR
07:46 15.2 °C 12.3 °C 1013.4 hPa Calm     83% 0.0 mm CLR
07:51 15.2 °C 12.3 °C 1013.4 hPa Calm   5.6 km/h 83% 0.0 mm CLR
07:56 15.2 °C 12.3 °C 1013.4 hPa WSW 2.9 km/h 7.4 km/h 83% 0.0 mm CLR
08:01 15.2 °C 12.3 °C 1013.4 hPa SW 2.9 km/h 7.4 km/h 83% 0.0 mm CLR
08:06 15.3 °C 12.2 °C 1013.4 hPa West 4.7 km/h 7.4 km/h 82% 0.0 mm CLR
08:11 15.4 °C 12.3 °C 1013.4 hPa WSW 4.7 km/h 7.4 km/h 82% 0.0 mm CLR
08:16 15.5 °C 12.3 °C 1013.4 hPa WSW 4.7 km/h 8.4 km/h 81% 0.0 mm CLR
08:21 15.7 °C 12.4 °C 1013.4 hPa SW 4.7 km/h 9.5 km/h 81% 0.0 mm CLR
08:26 15.9 °C 12.4 °C 1013.4 hPa West 5.8 km/h 11.1 km/h 80% 0.0 mm CLR
08:31 16.0 °C 12.3 °C 1013.4 hPa SW 5.8 km/h 9.3 km/h 79% 0.0 mm CLR
08:36 16.3 °C 12.4 °C 1013.4 hPa SW 5.0 km/h 9.3 km/h 78% 0.0 mm CLR
08:41 16.4 °C 12.3 °C 1013.4 hPa WSW 5.0 km/h 7.4 km/h 77% 0.0 mm CLR
08:46 16.6 °C 12.6 °C 1013.4 hPa WSW 5.0 km/h 9.3 km/h 77% 0.0 mm CLR
08:51 16.7 °C 12.4 °C 1013.4 hPa WSW 5.0 km/h 9.3 km/h 76% 0.0 mm CLR
08:56 16.8 °C 12.3 °C 1013.4 hPa West 5.8 km/h 9.3 km/h 75% 0.0 mm CLR
09:01 16.9 °C 12.4 °C 1013.4 hPa WSW 5.8 km/h 9.5 km/h 75% 0.0 mm CLR
09:06 16.9 °C 12.2 °C 1013.4 hPa SW 6.4 km/h 7.4 km/h 74% 0.0 mm CLR
09:11 17.2 °C 12.3 °C 1013.4 hPa SSE 6.4 km/h 11.1 km/h 73% 0.0 mm CLR
09:16 17.4 °C 12.3 °C 1013.4 hPa SW 5.0 km/h 7.4 km/h 72% 0.0 mm CLR
09:21 17.6 °C 12.5 °C 1013.4 hPa SSW 5.0 km/h 11.1 km/h 72% 0.0 mm CLR
09:26 17.7 °C 12.4 °C 1013.4 hPa SW 5.0 km/h 7.6 km/h 71% 0.0 mm CLR
09:31 17.9 °C 12.6 °C 1013.4 hPa SSW 5.0 km/h 7.6 km/h 71% 0.0 mm CLR
09:36 17.9 °C 12.6 °C 1013.4 hPa SW 5.8 km/h 9.3 km/h 71% 0.0 mm CLR
09:41 17.9 °C 12.6 °C 1013.4 hPa SSW 5.8 km/h 11.1 km/h 71% 0.0 mm CLR
09:46 18.2 °C 12.4 °C 1013.4 hPa WSW 5.8 km/h 11.1 km/h 69% 0.0 mm
09:51 18.3 °C 12.5 °C 1013.4 hPa SSE 5.8 km/h 6.4 km/h 69% 0.0 mm
09:56 18.6 °C 12.3 °C 1013.4 hPa SE 5.0 km/h 11.1 km/h 67% 0.0 mm
10:01 18.8 °C 12.3 °C 1013.4 hPa SSW 5.0 km/h 7.4 km/h 66% 0.0 mm
10:06 19.2 °C 12.4 °C 1013.4 hPa SE 4.7 km/h 5.6 km/h 65% 0.0 mm
10:11 19.4 °C 12.4 °C 1013.4 hPa ESE 4.7 km/h 7.4 km/h 64% 0.0 mm
10:16 19.8 °C 12.3 °C 1013.4 hPa South 3.2 km/h 4.7 km/h 62% 0.0 mm CLR
10:21 19.9 °C 12.2 °C 1013.4 hPa ESE 3.2 km/h 7.4 km/h 61% 0.0 mm CLR
10:26 19.8 °C 12.1 °C 1013.4 hPa East 4.7 km/h 9.3 km/h 61% 0.0 mm CLR
10:31 19.6 °C 12.1 °C 1013.4 hPa ESE 4.7 km/h 11.1 km/h 62% 0.0 mm CLR
10:36 19.4 °C 12.2 °C 1013.4 hPa SE 6.9 km/h 9.3 km/h 63% 0.0 mm CLR
10:41 19.4 °C 11.9 °C 1013.4 hPa South 6.9 km/h 11.1 km/h 62% 0.0 mm CLR
10:46 19.3 °C 12.1 °C 1013.4 hPa East 5.8 km/h 7.4 km/h 63% 0.0 mm CLR
10:51 19.4 °C 11.9 °C 1013.4 hPa East 5.8 km/h 5.8 km/h 62% 0.0 mm CLR
10:56 19.6 °C 11.9 °C 1013.4 hPa ESE 4.7 km/h 7.4 km/h 61% 0.0 mm CLR
11:01 19.8 °C 11.8 °C 1013.4 hPa ESE 4.7 km/h 4.7 km/h 60% 0.0 mm CLR
11:06 20.4 °C 11.1 °C 1013.4 hPa ESE 2.9 km/h 3.7 km/h 55% 0.0 mm CLR
11:09 20.7 °C 11.1 °C 1013.4 hPa NNE 2.9 km/h 9.3 km/h 54% 0.0 mm CLR
11:14 20.9 °C 11.2 °C 1013.4 hPa NNE 2.9 km/h 3.9 km/h 54% 0.0 mm CLR
11:19 21.1 °C 11.2 °C 1013.4 hPa East 3.2 km/h 9.5 km/h 53% 0.0 mm CLR
11:24 21.1 °C 11.2 °C 1013.4 hPa NE 3.2 km/h 3.7 km/h 53% 0.0 mm CLR
11:29 21.4 °C 11.1 °C 1013.4 hPa East 4.7 km/h 5.6 km/h 52% 0.0 mm CLR
Murcia-Puente Tocinos, España
Compliments of Weather Underground - 2 mb

La estación de MeteoMurcia.com, publica sus datos en los siguientes proyectos:

Meteoclimatic www.awekas.at

W3Counter
Web Analytics